Regional Weather Roundup
Issued by NWS Wakefield, VA

Home | Current Version | Previous Version | Text Only | Print | Product List | Glossary On
Versions: 1 2 3 4 5 6 7 8 9 10 11 12 13 14 15 16 17 18 19 20 21 22 23 24 25 26 27 28 29 30 31 32 33 34 35 36 37 38 39 40 41 42 43 44 45 46 47 48 49
813
ASUS41 KAKQ 091314
RWRAKQ

REGIONAL WEATHER ROUNDUP
NATIONAL WEATHER SERVICE WAKEFIELD VA
800 AM EST TUE FEB 09 2016

Note: "fair" indicates few or no clouds below 12,000 feet with no
significant weather and/or obstructions to visibility. * = Denotes
station may not report precipitation (e.g., rain,snow,etc.),
thunder or fog.

VAZ042-051-052>054-056-091400-
NORTHERN VIRGINIA

CITY           SKY/WX    TMP DP  RH WIND       PRES   REMARKS
WASH NATIONAL  LGT SNOW  36  34  92 CALM      29.59S FOG
DULLES         LGT SNOW  33  32  96 NE3       29.57S FOG
FORT BELVOIR   LGT RAIN  36  34  93 NW3       29.58S FOG
QUANTICO       LGT RAIN  39  36  89 CALM      29.60R FOG
FREDERICKSBRG* CLOUDY    37  37 100 NW5       29.57S
STAFFORD*      CLOUDY    37  37  98 W3        29.61S FOG
WARRENTON      RAIN      37  37 100 CALM      29.57S
CULPEPER*      MIX PCPN  35  35 100 CALM      29.58S
MANASSAS*      LGT RAIN  36  36 100 NW3       29.58R FOG
LEESBURG*      LGT SNOW  34  34 100 CALM      29.58S VSB 3/4
WINCHESTER     RAIN      34  34 100 CALM      29.56R
FRONT ROYAL*   CLOUDY    34  32  93 CALM      29.55S
LURAY*         LGT SNOW  32  32 100 SW7       29.56R
$$

VAZ048-049-060>072-079>083-091400-
CENTRAL AND SOUTH CENTRAL VIRGINIA

CITY           SKY/WX    TMP DP  RH WIND       PRES   REMARKS
RICHMOND       FAIR      37  36  96 NW3       29.57S
CHESTERFIELD*  CLOUDY    37  25  60 W8        29.59R
PETERSBURG*    FAIR      37  35  94 SW6       29.59S
HANOVER        MOCLDY    37  36  96 W3        29.58F FOG
TAPPAHANNOCK*  CLOUDY    40  40 100 SW5       29.58R
QUINTON*       FAIR      37  37  99 W3        29.57S FOG
CHARLOTTSVILLE FOG       35  33  92 SW3       29.57R VSB 1/2
GORDONSVILLE*  CLOUDY    35  35  99 W3        29.57S FOG
ORANGE*        CLOUDY    36  36 100 SW5       29.59R FOG
LOUISA*        FOG       36  36 100 W5        29.56R VSB 3/4
BUMPASS*       CLOUDY    35  35 100 CALM      29.57S
FARMVILLE*     CLOUDY    32  32 100 SW3       29.58R
CREWE*         CLOUDY    33  32  98 SW5       29.59R
FORT PICKETT*  CLOUDY    32  32  99 SW9       29.59R
CHASE CITY*    CLOUDY    34  29  83 CALM      29.61S
CLARKSVILLE*   CLOUDY    36  28  75 W6        29.61S
SOUTH HILL*    CLOUDY    32  29  88 SW3       29.66R
LAWRENCEVILLE* CLOUDY    32  31  98 W5        29.61R
EMPORIA*       CLOUDY    32  32 100 SW6       29.62R
$$

VAZ088>098-091400-
SOUTHEAST VIRGINIA

CITY           SKY/WX    TMP DP  RH WIND       PRES   REMARKS
NORFOLK        FAIR      40  36  86 VRB6      29.57R
VIRGINIA BEACH PTSUNNY   42  37  82 W9        29.57R
NORFOLK NAVAL  PTSUNNY   40  36  86 W13       29.59R
WEST POINT*    MOCLDY    38  38  99 W5        29.59R
SALUDA*        CLOUDY    39  39 100 CALM      29.57R
NEWPORT NEWS   MOCLDY    38  37  97 W9        29.58R FOG
LANGLEY AFB    PTSUNNY   37  37 100 W7        29.56R FOG
FORT EUSTIS    CLOUDY    37  37 100 VRB2      29.56R FOG
WILLIAMSBURG*  CLOUDY    41  41 100 NW6       29.59R
HR EXEC AP*    PTSUNNY   39  36  87 W7        29.59R
FRANKLIN*      CLOUDY    37  35  93 W7        29.59S
US460-WAKEFLD  CLOUDY    37  35  92 SW5       29.58S FOG
$$

VAZ020-022-025-037-045-091400-
WEST CENTRAL AND SOUTHWEST VIRGINIA

CITY           SKY/WX    TMP DP  RH WIND       PRES   REMARKS
STAUNTON*      LGT SNOW  36  34  93 CALM      29.58R
WAYNESBORO*    CLOUDY    31  28  90 SW5       29.56R
HOT SPRINGS VA LGT SNOW  22  22 100 W16G23    29.45R VSB 1   WCI   9
LYNCHBURG      CLOUDY    32  27  81 VRB7      29.60R
DANVILLE       CLOUDY    33  28  81 W6        29.64R
SOUTH BOSTON*  CLOUDY    33  29  85 W5        29.63R
MARTINSVILLE   CLOUDY    29  24  83 CALM      29.66R
ROANOKE        CLOUDY    32  25  75 W7        29.63R
BLACKSBURG     CLOUDY    27  19  74 W10G17    29.63R WCI  17
DUBLIN*        CLOUDY    27  20  75 NW9       29.62S
MARION*        LGT SNOW  24  20  86 W15       29.63R WCI  11
HILLSVILLE*    CLOUDY    24  19  83 W12G17    29.57S WCI  12
RICHLANDS*     LGT SNOW  21  17  83 W8        29.63R
WISE*          FLURRIES  21  12  68 W6        29.66R
ABINGDON*      CLOUDY    26  20  80 W6        29.67S
$$

MDZ021>025-VAZ099-100-091400-
SOUTHERN MARYLAND AND THE DELMARVA PENINSULA

CITY           SKY/WX    TMP DP  RH WIND       PRES   REMARKS
PATUXENT RIVER CLOUDY    38  35  89 E6        29.57S
BAY BRIDGE APT   N/A     36  34  93 E9        29.59S
LEONARDTOWN    CLOUDY    36  36 100 CALM      29.58S
DOVER          CLOUDY    35  35 100 NE9       29.58F
GEORGETOWN     MIX PCPN  37  36  96 NE7       29.58S
EASTON         NOT AVBL
CAMBRIDGE      MOCLDY    36  34  93 NE5       29.56F
SALISBURY      CLOUDY    38  36  92 NE8       29.56F
OCEAN CITY     CLOUDY    40  36  86 NE7       29.56S
WALLOPS ISLAND LGT RAIN  40  37  89 N5        29.56R
ACCOMACK*      DRIZZLE   37  37 100 W5        29.56R
$$

NCZ012>017-030>032-091400-
NORTH CENTRAL AND EASTERN NORTH CAROLINA

CITY           SKY/WX    TMP DP  RH WIND       PRES   REMARKS
ROANOKE RAPIDS PTSUNNY   32  32 100 W5        29.62R
RALEIGH        CLOUDY    36  32  85 SW5       29.65R
ELIZABETH CITY SUNNY     38  36  92 W8        29.59R
AHOSKIE*       CLOUDY    35  33  89 CALM      29.62R
EDENTON*       SUNNY     41  38  91 W8        29.62R
CURRITUCK*     SUNNY     38  38  99 W7        29.58S
KILL DEVIL HLS PTSUNNY   41  39  90 W7        29.57S
MANTEO         MOSUNNY   40  39  97 W8        29.59S
CAPE HATTERAS  PTSUNNY   43  39  86 W9        29.61R
TARBORO*       CLOUDY    38  34  86 W6        29.65R
GOLDSBORO      CLOUDY    39  39 100 W8        29.64R
WASHINGTON     PTSUNNY   36  35  98 CALM      29.64R FOG
GREENVILLE     CLOUDY    37  36  93 W5        29.67S
NEW BERN       PTSUNNY   38  36  92 W8        29.67R FOG
WILMINGTON     CLOUDY    41  35  79 W9        29.70R
$$

VAZ048-091400-
ELSEWHERE

CITY           SKY/WX    TMP DP  RH WIND       PRES   REMARKS
HARRISBURG PA  LGT SNOW  31  28  89 E6        29.60S VSB 3/4
BALTIMORE      LGT SNOW  33  32  96 E8        29.58S VSB 1
ANNAPOLIS      LGT RAIN  36  34  92 E6        29.59R FOG
ANDREWS AFB    LGT RAIN  34  33  95 E5        29.56S FOG
PHILADELPHIA   LGT SNOW  33  28  81 NE8       29.64S
HENDERSON NC   CLOUDY    36  27  69 W3        29.62R
GREENSBORO     CLOUDY    34  26  72 NW9       29.63S
ROCKY MOUNT    CLOUDY    37  32  82 CALM      29.64R
$$

VAZ100-091400-
MARINE

STATION/POSITION TIME  TEMP    WIND        PRES    WAVE   SWELL
                       AIR SEA DIR/SP/G            HT/PER HT/PER
                 (UTC) (F)     (DEG/KT/KT) (MB)    (FT/S) (FT/S)
BRANDYWINE LGT   1200   37      80/ 13/ 15 1001.9F
CAPE MAY NJ      1200   37 42   70/  6/ 11 1001.6F
LEWES DE         1200   39 41   90/ 12/ 15 1001.6F
15NM E FENWICK I 1250   41 43              1000.2F  10/14
OCEAN-CITY-INLET 1200   41 41   60/  6/ 10 1000.1F
WACHAPREAGUE VA  1200   40 42  360/  3/  6 1000.4R
GOOSES REEF MD   1300   38 40  100/ 10/ 12 1002.5R   1/ 3
COVE POINT MD    1200   37     110/  9/ 13 1001.8F
SOLOMONS ISLAND  1200   38 41   80/  8/ 10   N/A
BISHOPS HEAD MD  1200   38 40   50/  9/ 12 1000.0S
PINEY POINT MD   1200          100/  5/  6   N/A
POTOMAC MD       1300   39 40   70/  6/  8 1000.1R   1
CAMBRIDGE MD     1200   37 40   80/  9/ 11 1000.6F
LEWISETTA VA     1200   40 42  100/  6/  7 1000.8R
RAPPAHANNOCK LGT 1200          270/  5/  6 1001.1R
STINGRAY PT      1300   41 42  120/  2/  4 1001.1R   1/ 3
YORK RVR RNG VA  1200   41     310/  5/  6 1000.2R
YORKTOWN VA      1200   39 43  260/  6/  9 1000.6R
JAMESTOWN VA     1300   37 44  260/  6/  8   N/A
DOMINION TERM VA 1200   40     290/ 11/ 12 1000.8R
KIPTOPEKE VA     1200      43  360/  5/  6   N/A
CHES BAY BRIDGE  1200   42 44  270/ 10/ 11 1000.3R
CAPE HENRY VA    1200   42     290/  9/ 13   N/A
CHESAPEAKE LGHT  1200   42     320/ 19/ 20 1000.8R
WILLOUBY STN VA  1200   40     290/ 10/ 12   N/A
CAPE HENRY BUOY  1228      45                N/A     6/13   5/13
1ST LANDING BUOY 1300      44                N/A     4/ 7
CAPE CHARLES BUO 1226      44                N/A     8/13   8/13
OFFSHORE WE BUOY 1221      47                N/A     8/14   8/14
64NM E OF VA BCH 1250   46 51  290/ 19/ 25  999.1R  11/14  10/14
DUCK PIER NC     1200   41     270/ 14/ 18 1000.7R
44100 DUCK FRF   1224      47                N/A    10/15   8/15
44056 DUCK FRF   1211      44                N/A     8/13   7/13
OREGON INLET NC  1200   41 45  250/ 11/ 15 1001.4R
HATTERAS NC      1200   44 52  280/ 16/ 19 1002.0R
DIAMOND SHLS NC  1250   47 73  290/ 17/ 23 1002.1S  12/14  11/14
$$




USA.gov is the U.S. government's official web portal to all federal, state and local government web resources and services.